Davenport, OK

6:49 PM CST on December 10, 2016 (GMT -0600)
Chandler Municipal

Weather History for KCQB - December, 2012

Change the Weather History Date:

Thursday, December 20, 2012

  Actual Average (KCUH) Record (KCUH)
Temperature  
Mean Temperature 39 °F -  
Max Temperature 46 °F 48 °F 70 °F (1949)
Min Temperature 32 °F 27 °F 2 °F (1983)
Degree Days  
Heating Degree Days 26    
Moisture  
Dew Point 21 °F    
Average Humidity 53    
Maximum Humidity 81    
Minimum Humidity 27    
Precipitation  
Precipitation 0.00 in - - ()
Sea Level Pressure  
Sea Level Pressure 30.17 in    
Wind  
Wind Speed 23 mph (WNW)    
Max Wind Speed 36 mph    
Max Gust Speed 50 mph    
Visibility 10 miles    
Events      
Averages and records for this station are not official NWS values.
T = Trace of Precipitation, MM = Missing Value Source: NWS Daily Summary

Daily Weather History Graph

Daily Weather History Graph

Search for Another Location

Airport or City:

Trip Planner

Search our weather history database for the weather conditions in past years. The results will help you decide how hot, cold, wet, or windy it might be!

Date:

Astronomy

Dec. 20, 2012 Rise Set
Actual Time 7:33 AM CST 5:17 PM CST
Civil Twilight 7:04 AM CST 5:45 PM CST
Nautical Twilight 6:32 AM CST 6:17 PM CST
Astronomical Twilight 6:01 AM CST 6:49 PM CST
Moon 12:26 PM CST (12/20) 12:31 AM CST (12/20)
Length of Visible Light 10h 41m
Length of Day
9h 44m
First Quarter, 55% of the Moon is Illuminated
Dec 20
First Quarter
Dec 28
Full
Jan 4
Last Quarter
Jan 11
New
Jan 18
First Quarter

Hourly Weather History & Observations

Time (CST) Temp. Windchill Dew Point Humidity Pressure Visibility Wind Dir Wind Speed Gust Speed Precip Events Conditions
12:15 AM 44.6 °F - 37.4 °F 76% 29.69 in 10.0 mi North - - N/A   Overcast
12:35 AM 42.8 °F - 35.6 °F 76% 29.70 in 10.0 mi North - - N/A   Overcast
12:55 AM 41.0 °F 29.0 °F 33.8 °F 76% 29.73 in 10.0 mi WNW 35.7 mph 44.9 mph N/A   Overcast
1:35 AM 37.4 °F 25.2 °F 32.0 °F 81% 29.78 in 10.0 mi NW 28.8 mph 49.5 mph N/A   Overcast
1:55 AM 37.4 °F 25.9 °F 32.0 °F 81% 29.80 in 10.0 mi NW 25.3 mph 39.1 mph N/A   Overcast
2:15 AM 37.4 °F 24.6 °F 32.0 °F 81% 29.83 in 10.0 mi NW 32.2 mph 41.4 mph N/A   Overcast
2:35 AM 37.4 °F 25.0 °F 32.0 °F 81% 29.85 in 10.0 mi NW 29.9 mph 39.1 mph N/A   Overcast
2:55 AM 39.2 °F 27.2 °F 32.0 °F 75% 29.87 in 10.0 mi NW 31.1 mph 47.2 mph N/A   Overcast
3:15 AM 39.2 °F 26.8 °F 32.0 °F 75% 29.90 in 10.0 mi NW 33.4 mph 44.9 mph N/A   Overcast
3:35 AM 37.4 °F 24.6 °F 32.0 °F 81% 29.92 in 10.0 mi NW 32.2 mph 44.9 mph N/A   Overcast
3:55 AM 37.4 °F 24.8 °F 30.2 °F 75% 29.93 in 10.0 mi NW 31.1 mph 42.6 mph N/A   Overcast
4:15 AM 37.4 °F 25.0 °F 30.2 °F 75% 29.95 in 10.0 mi NW 29.9 mph 44.9 mph N/A   Overcast
4:35 AM 37.4 °F 25.2 °F 30.2 °F 75% 29.97 in 10.0 mi NW 28.8 mph 46.0 mph N/A   Overcast
4:55 AM 35.6 °F 23.2 °F 30.2 °F 81% 29.98 in 10.0 mi NW 26.5 mph 41.4 mph N/A   Overcast
5:15 AM 35.6 °F 22.7 °F 30.2 °F 81% 29.99 in 10.0 mi NW 28.8 mph 38.0 mph N/A   Overcast
5:35 AM 35.6 °F 24.0 °F 30.2 °F 81% 30.01 in 10.0 mi NW 23.0 mph 39.1 mph N/A   Mostly Cloudy
5:55 AM 35.6 °F 22.7 °F 30.2 °F 81% 30.04 in 10.0 mi NW 28.8 mph 35.7 mph N/A   Mostly Cloudy
6:15 AM 35.6 °F 24.0 °F 30.2 °F 81% 30.06 in 10.0 mi NW 23.0 mph 33.4 mph N/A   Mostly Cloudy
6:35 AM 35.6 °F 23.2 °F 30.2 °F 81% 30.08 in 10.0 mi NW 26.5 mph 35.7 mph N/A   Overcast
6:55 AM 33.8 °F 21.3 °F 28.4 °F 81% 30.10 in 10.0 mi NW 24.2 mph 29.9 mph N/A   Mostly Cloudy
7:15 AM 33.8 °F - 28.4 °F 81% 30.12 in 10.0 mi North - - N/A   Scattered Clouds
7:35 AM 33.8 °F 23.2 °F 26.6 °F 75% 30.13 in 10.0 mi NW 17.3 mph 26.5 mph N/A   Clear
7:55 AM 33.8 °F - 24.8 °F 70% 30.14 in 10.0 mi North - - N/A   Clear
8:15 AM 35.6 °F - 23.0 °F 60% 30.15 in 10.0 mi North - - N/A   Clear
8:35 AM 35.6 °F - 23.0 °F 60% 30.16 in 10.0 mi North - - N/A   Clear
8:55 AM 35.6 °F 23.0 °F 23.0 °F 60% 30.17 in 10.0 mi NW 27.6 mph - N/A   Clear
9:15 AM 37.4 °F - 23.0 °F 56% 30.18 in 10.0 mi North - - N/A   Clear
9:35 AM 37.4 °F - 21.2 °F 52% 30.19 in 10.0 mi North - - N/A   Clear
9:55 AM 39.2 °F 28.3 °F 19.4 °F 45% 30.20 in 10.0 mi NW 25.3 mph 43.7 mph N/A   Clear
10:15 AM 39.2 °F 29.3 °F 19.4 °F 45% 30.22 in 10.0 mi NW 20.7 mph - N/A   Clear
10:35 AM 41.0 °F 30.0 °F 19.4 °F 42% 30.23 in 10.0 mi NW 28.8 mph - N/A   Clear
10:55 AM 41.0 °F - 19.4 °F 42% 30.24 in 10.0 mi North - - N/A   Clear
11:15 AM 42.8 °F 31.9 °F 19.4 °F 39% 30.25 in 10.0 mi NW 32.2 mph - N/A   Clear
11:35 AM 42.8 °F - 19.4 °F 39% 30.25 in 10.0 mi North - - N/A   Clear
11:55 AM 44.6 °F - 17.6 °F 34% 30.25 in 10.0 mi North - - N/A   Clear
12:15 PM 44.6 °F - 17.6 °F 34% 30.25 in 10.0 mi North - - N/A   Clear
12:35 PM 44.6 °F - 17.6 °F 34% 30.25 in 10.0 mi North - - N/A   Clear
12:55 PM 46.4 °F - 15.8 °F 29% 30.25 in 10.0 mi North - - N/A   Clear
1:15 PM 46.4 °F - 15.8 °F 29% 30.25 in 10.0 mi North - - N/A   Clear
1:35 PM 46.4 °F - 15.8 °F 29% 30.25 in 10.0 mi North - - N/A   Clear
2:15 PM 46.4 °F - 15.8 °F 29% 30.26 in 10.0 mi North - - N/A   Clear
2:35 PM 46.4 °F - 14.0 °F 27% 30.27 in 10.0 mi North - - N/A   Clear
2:55 PM 46.4 °F - 15.8 °F 29% 30.27 in 10.0 mi North - - N/A   Clear
3:15 PM 46.4 °F - 15.8 °F 29% 30.29 in 10.0 mi North - - N/A   Clear
3:35 PM 46.4 °F - 15.8 °F 29% 30.29 in 10.0 mi North - - N/A   Clear
3:55 PM 46.4 °F - 15.8 °F 29% 30.30 in 10.0 mi North - - N/A   Clear
4:15 PM 46.4 °F - 14.0 °F 27% 30.30 in 10.0 mi North - - N/A   Clear
4:35 PM 44.6 °F - 14.0 °F 29% 30.31 in 10.0 mi North - - N/A   Clear
4:55 PM 44.6 °F 38.4 °F 14.0 °F 29% 30.31 in 10.0 mi NW 12.7 mph - N/A   Clear
5:15 PM 42.8 °F 38.6 °F 14.0 °F 31% 30.31 in 10.0 mi NW 6.9 mph - N/A   Clear
5:35 PM 41.0 °F 37.1 °F 14.0 °F 33% 30.32 in 10.0 mi NW 5.8 mph - N/A   Clear
5:55 PM 39.2 °F 35.0 °F 14.0 °F 36% 30.32 in 10.0 mi NW 5.8 mph - N/A   Clear
6:15 PM 37.4 °F 32.8 °F 14.0 °F 38% 30.32 in 10.0 mi WNW 5.8 mph - N/A   Clear
6:35 PM 39.2 °F 34.2 °F 14.0 °F 36% 30.33 in 10.0 mi NW 6.9 mph - N/A   Clear
6:55 PM 37.4 °F 32.8 °F 14.0 °F 38% 30.33 in 10.0 mi NW 5.8 mph - N/A   Clear
7:15 PM 37.4 °F 32.8 °F 14.0 °F 38% 30.33 in 10.0 mi NW 5.8 mph - N/A   Clear
7:35 PM 37.4 °F 33.8 °F 14.0 °F 38% 30.34 in 10.0 mi WNW 4.6 mph - N/A   Clear
7:55 PM 35.6 °F 31.7 °F 12.2 °F 38% 30.34 in 10.0 mi West 4.6 mph - N/A   Clear
8:15 PM 35.6 °F 30.7 °F 14.0 °F 41% 30.34 in 10.0 mi West 5.8 mph - N/A   Clear
8:35 PM 35.6 °F 30.7 °F 14.0 °F 41% 30.35 in 10.0 mi West 5.8 mph - N/A   Clear
8:55 PM 33.8 °F 29.6 °F 14.0 °F 44% 30.35 in 10.0 mi West 4.6 mph - N/A   Clear
9:15 PM 33.8 °F 28.6 °F 17.6 °F 52% 30.35 in 10.0 mi West 5.8 mph - N/A   Clear
9:35 PM 35.6 °F 30.7 °F 15.8 °F 44% 30.35 in 10.0 mi West 5.8 mph - N/A   Clear
9:55 PM 33.8 °F 28.6 °F 14.0 °F 44% 30.35 in 10.0 mi WSW 5.8 mph - N/A   Clear
10:15 PM 33.8 °F 29.6 °F 14.0 °F 44% 30.35 in 10.0 mi WSW 4.6 mph - N/A   Clear
10:35 PM 32.0 °F 26.4 °F 14.0 °F 48% 30.35 in 10.0 mi WSW 5.8 mph - N/A   Clear
10:55 PM 32.0 °F 25.6 °F 14.0 °F 48% 30.35 in 10.0 mi WSW 6.9 mph - N/A   Clear
11:15 PM 32.0 °F 26.4 °F 15.8 °F 51% 30.35 in 10.0 mi WSW 5.8 mph - N/A   Clear
11:35 PM 32.0 °F 26.4 °F 15.8 °F 51% 30.36 in 10.0 mi West 5.8 mph - N/A   Clear
11:55 PM 32.0 °F 26.4 °F 17.6 °F 55% 30.36 in 10.0 mi West 5.8 mph - N/A   Clear